Oxford, NC

4:59 PM EST on November 13, 2019 (GMT -0500)
Henderson-Oxford

Weather History for KHNZ - June, 2019

Change the Weather History Date:

Friday, June 14, 2019

  Actual Average (WUND) Record (WUND)
Temperature  
Mean Temperature 62 °F -  
Max Temperature 74 °F - - (-1)
Min Temperature 51 °F - - (-1)
Degree Days  
Heating Degree Days 2    
Growing Degree Days 12 (Base 50)    
Moisture  
Dew Point 44 °F    
Average Humidity 52    
Maximum Humidity 80    
Minimum Humidity 32    
Precipitation  
Precipitation 0.00 in - - ()
Sea Level Pressure  
Sea Level Pressure 30.12 in    
Wind  
Wind Speed 4 mph ()    
Max Wind Speed 14 mph    
Max Gust Speed 22 mph    
Visibility 10.0 miles    
Events      
Averages and records for this station are not official NWS values.
T = Trace of Precipitation, MM = Missing Value Source: Averaged Metar Reports

Daily Weather History Graph

Daily Weather History Graph

Search for Another Location

Airport or City:

Astronomy

Jun. 14, 2019 Rise Set
Actual Time 5:55 AM EDT 8:33 PM EDT
Civil Twilight 5:25 AM EDT 9:03 PM EDT
Nautical Twilight 4:47 AM EDT 9:41 PM EDT
Astronomical Twilight 4:05 AM EDT 10:23 PM EDT
Moon 5:57 PM EDT (6/14) 4:06 AM EDT (6/14)
Length of Visible Light 15h 38m
Length of Day
14h 37m
Waxing Gibbous, 92% of the Moon is Illuminated
Jun 14
Waxing Gibbous
Jun 17
Full
Jun 25
Last Quarter
Jul 2
New
Jul 9
First Quarter

Hourly Weather History & Observations

Time (EDT) Temp. Dew Point Humidity Pressure Visibility Wind Dir Wind Speed Gust Speed Precip Events Conditions
12:00 AM 60.4 °F 52.0 °F 74% 29.98 in 10.0 mi Calm Calm - N/A   Clear
12:20 AM 60.1 °F 48.4 °F 65% 29.99 in 10.0 mi NW 3.5 mph - N/A   Clear
12:40 AM 59.4 °F 47.8 °F 66% 29.99 in 10.0 mi WNW 3.5 mph - N/A   Clear
1:00 AM 58.5 °F 48.0 °F 68% 29.99 in 10.0 mi Calm Calm - N/A   Clear
1:20 AM 57.7 °F 47.7 °F 69% 30.00 in 10.0 mi WNW 3.5 mph - N/A   Clear
1:40 AM 58.6 °F 46.4 °F 64% 30.00 in 10.0 mi WNW 3.5 mph - N/A   Clear
2:00 AM 58.3 °F 45.7 °F 63% 30.00 in 10.0 mi WNW 5.8 mph - N/A   Clear
2:20 AM 58.5 °F 44.6 °F 60% 30.01 in 10.0 mi WNW 6.9 mph - N/A   Clear
2:40 AM 58.6 °F 43.7 °F 58% 30.02 in 10.0 mi WNW 6.9 mph - N/A   Clear
3:00 AM 58.3 °F 43.3 °F 58% 30.02 in 10.0 mi West 3.5 mph - N/A   Clear
3:20 AM 57.4 °F 43.7 °F 60% 30.03 in 10.0 mi West 3.5 mph - N/A   Clear
3:40 AM 56.3 °F 43.9 °F 63% 30.03 in 10.0 mi Calm Calm - N/A   Clear
4:00 AM 55.9 °F 43.5 °F 63% 30.04 in 10.0 mi Calm Calm - N/A   Clear
4:20 AM 56.3 °F 42.8 °F 61% 30.04 in 10.0 mi West 3.5 mph - N/A   Clear
4:40 AM 55.4 °F 42.8 °F 63% 30.05 in 10.0 mi West 3.5 mph - N/A   Clear
5:00 AM 54.5 °F 43.0 °F 65% 30.05 in 10.0 mi Calm Calm - N/A   Clear
5:20 AM 53.8 °F 43.0 °F 67% 30.06 in 10.0 mi WSW 3.5 mph - N/A   Clear
5:40 AM 53.2 °F 43.2 °F 69% 30.07 in 10.0 mi WSW 4.6 mph - N/A   Clear
6:00 AM 51.4 °F 43.7 °F 75% 30.08 in 10.0 mi WSW 3.5 mph - N/A   Clear
6:20 AM 51.3 °F 43.7 °F 75% 30.08 in 10.0 mi WSW 3.5 mph - N/A   Clear
6:40 AM 51.4 °F 45.3 °F 80% 30.09 in 10.0 mi SW 3.5 mph - N/A   Clear
7:00 AM 54.1 °F 44.4 °F 70% 30.10 in 10.0 mi WSW 3.5 mph - N/A   Clear
7:20 AM 55.6 °F 44.2 °F 66% 30.11 in 10.0 mi WSW 4.6 mph - N/A   Clear
7:40 AM 56.5 °F 44.6 °F 64% 30.12 in 10.0 mi WSW 4.6 mph - N/A   Clear
8:00 AM 57.7 °F 45.1 °F 63% 30.13 in 10.0 mi West 4.6 mph - N/A   Clear
8:20 AM 59.0 °F 44.4 °F 58% 30.14 in 10.0 mi West 4.6 mph - N/A   Clear
8:40 AM 60.1 °F 44.6 °F 57% 30.14 in 10.0 mi West 9.2 mph - N/A   Clear
9:00 AM 61.2 °F 43.2 °F 52% 30.15 in 10.0 mi NW 6.9 mph 16.1 mph N/A   Clear
9:20 AM 62.1 °F 41.4 °F 47% 30.15 in 10.0 mi NW 11.5 mph 18.4 mph N/A   Clear
9:40 AM 62.6 °F 41.5 °F 46% 30.16 in 10.0 mi NNW 11.5 mph - N/A   Clear
10:00 AM 63.7 °F 38.8 °F 40% 30.16 in 10.0 mi NW 12.7 mph 19.6 mph N/A   Clear
10:20 AM 64.8 °F 39.7 °F 40% 30.17 in 10.0 mi NNW 12.7 mph 19.6 mph N/A   Clear
10:40 AM 64.8 °F 39.4 °F 39% 30.17 in 10.0 mi NW 13.8 mph 21.9 mph N/A   Clear
11:00 AM 65.7 °F 40.3 °F 39% 30.17 in 10.0 mi WNW 11.5 mph 16.1 mph N/A   Clear
11:20 AM 66.4 °F 39.6 °F 37% 30.17 in 10.0 mi NW 9.2 mph 17.3 mph N/A   Clear
11:40 AM 67.1 °F 38.7 °F 35% 30.17 in 10.0 mi NNW 10.4 mph 21.9 mph N/A   Clear
12:00 PM 68.4 °F 40.8 °F 37% 30.18 in 10.0 mi NW 9.2 mph - N/A   Clear
12:20 PM 68.9 °F 40.1 °F 35% 30.18 in 10.0 mi NW 8.1 mph - N/A   Clear
12:40 PM 69.1 °F 40.5 °F 35% 30.18 in 10.0 mi North 6.9 mph - N/A   Clear
1:00 PM 70.0 °F 41.0 °F 35% 30.18 in 10.0 mi WNW 9.2 mph - N/A   Clear
1:20 PM 69.6 °F 40.1 °F 34% 30.18 in 10.0 mi North 5.8 mph 18.4 mph N/A   Clear
1:40 PM 70.7 °F 41.7 °F 35% 30.18 in 10.0 mi NNW 4.6 mph - N/A   Clear
2:00 PM 71.1 °F 42.1 °F 35% 30.17 in 10.0 mi NNW 8.1 mph - N/A   Clear
2:20 PM 72.1 °F 43.3 °F 35% 30.17 in 10.0 mi Calm Calm - N/A   Clear
2:40 PM 72.5 °F 42.1 °F 33% 30.16 in 10.0 mi NNW 6.9 mph - N/A   Clear
3:00 PM 72.5 °F 42.3 °F 34% 30.16 in 10.0 mi Calm Calm - N/A   Clear
3:20 PM 72.9 °F 42.3 °F 33% 30.16 in 10.0 mi WNW 5.8 mph - N/A   Clear
3:40 PM 73.0 °F 42.1 °F 33% 30.15 in 10.0 mi West 8.1 mph - N/A   Clear
4:20 PM 73.0 °F 41.5 °F 32% 30.15 in 10.0 mi Calm Calm - N/A   Clear
4:40 PM 73.8 °F 43.7 °F 34% 30.15 in 10.0 mi NNW 6.9 mph - N/A   Clear
5:00 PM 73.4 °F 42.8 °F 33% 30.14 in 10.0 mi Calm Calm - N/A   Clear
5:20 PM 73.9 °F 44.1 °F 34% 30.14 in 10.0 mi Calm Calm - N/A   Clear
5:40 PM 74.1 °F 44.1 °F 34% 30.15 in 10.0 mi Calm Calm - N/A   Clear
6:00 PM 73.4 °F 41.5 °F 32% 30.14 in 10.0 mi Calm Calm - N/A   Clear
6:20 PM 73.6 °F 43.7 °F 34% 30.14 in 10.0 mi Calm Calm - N/A   Clear
6:40 PM 73.4 °F 43.2 °F 34% 30.14 in 10.0 mi Calm Calm - N/A   Clear
7:00 PM 72.7 °F 43.9 °F 36% 30.15 in 10.0 mi Calm Calm - N/A   Clear
7:40 PM 71.1 °F 45.0 °F 39% 30.15 in 10.0 mi Calm Calm - N/A   Clear
8:00 PM 69.8 °F 49.1 °F 48% 30.15 in 10.0 mi Calm Calm - N/A   Clear
8:20 PM 64.8 °F 52.7 °F 65% 30.15 in 10.0 mi Calm Calm - N/A   Clear
8:40 PM 63.5 °F 53.6 °F 70% 30.16 in 10.0 mi Calm Calm - N/A   Clear
9:00 PM 60.6 °F 51.4 °F 72% 30.17 in 10.0 mi Calm Calm - N/A   Clear
9:20 PM 60.4 °F 52.9 °F 76% 30.17 in 10.0 mi Calm Calm - N/A   Clear
9:40 PM 61.7 °F 50.0 °F 65% 30.18 in 10.0 mi Calm Calm - N/A   Clear
10:00 PM 59.2 °F 52.2 °F 78% 30.19 in 10.0 mi Calm Calm - N/A   Clear
10:20 PM 58.6 °F 50.5 °F 74% 30.19 in 10.0 mi Calm Calm - N/A   Clear